Location: Castillo
(10.5412°N, 66.9523°W)
Time: 09:12:13
(UTC+00:00)

Daily predictions for brighter satellites

Satellite Brightness Start Highest point End
(mag) Time Altitude Azimuth Time Altitude Azimuth Time Altitude Azimuth
STARLINK-1174 4.1 23:03:04 10° NNW 23:07:02 47° NE 23:11:01 10° SE
Cosmos 1500 3.2 23:03:31 10° N 23:07:18 63° E 23:11:03 10° SSE
CZ-2D R/B 3.7 23:03:57 10° SSE 23:07:37 42° ENE 23:11:17 10° N
ASC 2 Rocket 3.8 23:03:47 10° SW 23:07:45 38° SSE 23:12:50 10° E
TOS 3.3 23:05:41 10° WSW 23:08:00 40° SSE 23:11:27 10° E
Cosmos 1461 4.1 23:05:39 10° SSE 23:08:23 18° ESE 23:11:09 10° ENE
Milstar 3 Cent rocket 2.7 23:03:39 10° SW 23:08:29 52° SE 23:16:27 10° ENE
STARLINK-1149 3.9 23:07:58 10° NNW 23:12:00 54° NE 23:16:02 10° SE
Geosat 4.0 23:07:37 10° SSE 23:12:37 75° ENE 23:17:36 10° NNW
ARGOS Delta rocket 3.8 23:10:14 10° SSE 23:15:08 82° ENE 23:19:45 10° N
GPS 2-14 Rocket1 3.7 23:12:02 10° SW 23:15:45 31° SSE 23:19:26 10° E
Cosmos 1703 Rocket 4.4 23:12:59 10° SSE 23:16:41 27° E 23:20:21 10° NE
STARLINK-1180 3.7 23:12:53 10° NNW 23:16:59 64° NE 23:21:04 10° SE
CZ-2C R/B 4.1 23:14:05 10° ENE 23:17:32 17° E 23:20:57 10° SE
Cosmos 1536 3.6 23:18:16 10° NNE 23:21:56 32° E 23:25:34 10° SSE
STARLINK-1153 3.6 23:17:51 10° NNW 23:21:58 75° NE 23:26:03 10° SE
ATLAS V CENTAUR R/B 3.2 23:20:54 10° SSW 23:22:15 17° SSE 23:23:07 13° SE
BREEZE-M DEB (TANK) 3.2 23:20:43 10° SSW 23:23:47 24° SE 23:25:41 10° ENE
DELTA 2 R/B (1) 3.6 23:19:01 10° NW 23:24:34 83° SW 23:29:49 12° SE
Cosmos 405 Rocket 3.4 23:22:18 10° NNW 23:26:07 55° W 23:29:50 10° S
STARLINK-1132 3.6 23:22:47 10° NW 23:26:55 87° ENE 23:30:50 11° SE
Cosmos 1666 3.1 23:25:00 10° NNE 23:28:36 41° E 23:32:10 10° SSE
Meteor 1-11 Rocket 3.6 23:26:22 10° N 23:31:52 75° E 23:37:22 10° S
STARLINK-1177 3.7 23:27:46 10° NW 23:31:54 81° SW 23:35:38 12° SSE
MOS 1 Rocket 3.9 23:32:01 10° NE 23:35:41 28° E 23:39:26 10° SSE
STARLINK-1167 3.8 23:32:46 10° NW 23:36:52 69° SW 23:40:26 13° SSE
NOSS 2-2 (C) 4.4 23:33:59 10° S 23:37:29 23° ESE 23:40:30 10° ENE
USA 267 4.1 23:33:20 14° ESE 23:38:15 33° NE 23:43:59 10° NNW
Cosmos 44 Rocket 4.4 23:35:05 10° N 23:39:24 29° ENE 23:42:00 19° ESE
STARLINK-1168 4.0 23:37:45 10° NW 23:41:49 59° SW 23:45:11 14° SSE
Cosmos 2278 Rocket 2.6 23:39:33 10° SSW 23:45:10 67° WNW 23:50:47 10° N
SL-4 R/B 2.5 23:42:03 10° SSW 23:46:05 40° SE 23:50:23 10° NE
STARLINK-1164 4.3 23:42:46 10° NW 23:46:46 50° SW 23:49:58 15° SSE
Centaur Rocket 3.8 23:37:48 10° WSW 23:49:31 69° SSE 23:52:11 22° E
Cosmos 371 Rocket 3.4 23:46:38 10° S 23:51:15 48° ESE 23:55:54 10° NNE
Okean 1-7 2.9 23:50:38 10° S 23:54:56 87° E 23:59:12 10° N
Ariane Rocket 3.7 23:53:24 25° ESE 23:55:26 34° ENE 23:59:58 10° NNE
